Date String (YYYY-MM-DD hh:mm:ss) UTC,Instrument flags,Ambient pressure (hPa),Sample flow (lpm),Bypass flow (lpm),Sample temperature (°C),Ambient temperature (°C),ASC tube jacket temperature (°C),LED temperature (°C),Box temperature (°C),Sample RH (%),Span deviation,Mass concentration (μg/m³),Mass concentration (μg/m³),Mass concentration (μg/m³)
DateTimeUTC,F1_M11,P_M11,Q1_M11,Q2_M11,T1_M11,T2_M11,T3_M11,T4_M11,T5_M11,U1_M11,ZSPAN_M11,X0_M11,X2_M11,X1_M11
2022-11-12 17:00:00,,0827.9,5.01,0.00,22.9,21.7,00.0,31.6,24.8,10.4,0000.9,0015.52,0008.91,0008.10
2022-11-12 17:01:00,,0827.9,5.00,0.00,22.9,21.7,00.0,31.7,24.8,10.4,0001.2,0015.59,0008.88,0008.10
2022-11-12 17:02:00,,0827.9,4.99,0.00,22.9,21.7,00.0,31.7,24.9,10.5,0001.3,0016.18,0008.87,0008.11
2022-11-12 17:03:00,,0827.9,4.99,0.00,22.9,21.6,00.0,31.7,24.8,10.4,0001.1,0016.72,0008.84,0008.11
2022-11-12 17:04:00,,0827.8,5.00,0.00,22.9,21.7,00.0,31.7,24.8,10.7,0001.3,0017.19,0008.85,0008.12
2022-11-12 17:05:00,,0827.8,5.00,0.00,22.9,21.6,00.0,31.7,24.8,10.6,0001.3,0017.15,0008.84,0008.12
2022-11-12 17:06:00,,0827.9,5.02,0.00,22.9,21.7,00.0,31.7,24.8,10.7,0001.0,0017.97,0008.87,0008.13
2022-11-12 17:07:00,,0827.9,5.01,0.00,22.9,21.7,00.0,31.7,24.8,10.7,0001.2,0019.85,0008.93,0008.14
2022-11-12 17:08:00,,0827.9,5.00,0.00,22.9,21.7,00.0,31.7,24.9,10.7,0000.9,0019.68,0008.95,0008.14
2022-11-12 17:09:00,,0827.9,4.99,0.00,22.9,21.7,00.0,31.7,24.9,10.6,0000.2,0019.63,0008.96,0008.17
2022-11-12 17:10:00,,0827.9,5.00,0.00,22.9,21.7,00.0,31.7,24.8,10.7,-000.1,0019.27,0009.00,0008.20
2022-11-12 17:11:00,,0827.9,5.01,0.00,22.9,21.7,00.0,31.7,24.8,10.6,-000.4,0018.85,0009.01,0008.21
2022-11-12 17:12:00,,0827.9,5.00,0.00,22.9,21.7,00.0,31.7,24.9,10.6,-000.8,0018.61,0009.03,0008.23
2022-11-12 17:13:00,,0827.9,5.00,0.00,22.9,21.7,00.0,31.7,24.9,10.5,-000.9,0017.94,0009.02,0008.23
2022-11-12 17:14:00,,0827.9,5.00,0.00,23.0,21.7,00.0,31.7,24.9,10.4,-001.0,0017.53,0009.03,0008.25
2022-11-12 17:15:00,,0827.9,4.99,0.00,23.0,21.7,00.0,31.7,24.9,10.4,-000.8,0017.25,0009.03,0008.26
2022-11-12 17:16:00,,0827.9,5.02,0.00,23.0,21.7,00.0,31.7,24.9,10.4,-000.6,0017.31,0009.03,0008.27
2022-11-12 17:17:00,,0827.9,5.00,0.00,23.0,21.7,00.0,31.7,24.9,10.4,-000.2,0016.67,0009.04,0008.28
2022-11-12 17:18:00,,0827.9,4.99,0.00,23.0,21.7,00.0,31.7,24.9,10.3,-000.2,0014.61,0009.03,0008.29
2022-11-12 17:19:00,,0827.9,5.01,0.00,23.0,21.7,00.0,31.7,24.9,10.3,-000.2,0014.37,0009.07,0008.30
2022-11-12 17:20:00,,0827.9,4.99,0.00,23.0,21.7,00.0,31.7,24.9,10.3,-000.5,0015.04,0009.09,0008.28
2022-11-12 17:21:00,,0827.9,4.99,0.00,23.0,21.7,00.0,31.7,24.9,10.3,-000.5,0015.42,0009.16,0008.29
2022-11-12 17:22:00,,0827.8,4.99,0.00,23.0,21.7,00.0,31.7,24.9,10.3,-000.3,0016.44,0009.19,0008.30
2022-11-12 17:23:00,,0827.8,5.01,0.00,23.0,21.7,00.0,31.7,24.9,10.4,-000.2,0016.83,0009.24,0008.31
2022-11-12 17:24:00,,0827.8,5.00,0.00,23.0,21.7,00.0,31.7,24.9,10.3,-000.3,0016.91,0009.27,0008.32
2022-11-12 17:25:00,,0827.8,4.99,0.00,23.0,21.7,00.0,31.7,24.9,10.3,-000.2,0016.76,0009.26,0008.31
2022-11-12 17:26:00,,0827.8,5.02,0.00,23.0,21.7,00.0,31.7,24.9,10.3,-000.3,0016.36,0009.24,0008.31
2022-11-12 17:27:00,,0827.8,4.98,0.00,23.0,21.7,00.0,31.7,24.9,10.4,-000.2,0016.26,0009.25,0008.33
2022-11-12 17:28:00,,0827.7,4.99,0.00,23.0,21.7,00.0,31.7,24.9,10.3,-000.0,0016.61,0009.26,0008.35
2022-11-12 17:29:00,,0827.8,5.00,0.00,23.0,21.7,00.0,31.8,24.9,10.4,-000.2,0017.08,0009.28,0008.36
2022-11-12 17:30:00,,0827.7,5.00,0.00,23.0,21.7,00.0,31.7,24.9,10.4,0000.1,0017.12,0009.28,0008.37
2022-11-12 17:31:00,,0827.7,5.02,0.00,23.0,21.7,00.0,31.7,24.9,10.4,0000.5,0017.01,0009.28,0008.40
2022-11-12 17:32:00,,0827.7,4.99,0.00,23.0,21.7,00.0,31.8,24.9,10.4,0000.9,0017.25,0009.23,0008.41
2022-11-12 17:33:00,,0827.8,4.99,0.00,23.0,21.7,00.0,31.8,24.9,10.4,0001.4,0016.61,0009.22,0008.42
2022-11-12 17:34:00,,0827.7,5.02,0.00,23.0,21.8,00.0,31.8,24.9,10.4,0002.1,0016.33,0009.19,0008.42
2022-11-12 17:35:00,,0827.7,4.99,0.00,23.0,21.8,00.0,31.8,24.9,10.3,0002.6,0016.07,0009.20,0008.44
2022-11-12 17:36:00,,0827.7,4.99,0.00,23.0,21.8,00.0,31.8,24.9,10.3,0002.8,0016.18,0009.24,0008.46
2022-11-12 17:37:00,,0827.7,5.01,0.00,23.0,21.8,00.0,31.8,24.9,10.3,0002.8,0016.83,0009.27,0008.47
2022-11-12 17:38:00,,0827.7,5.01,0.00,23.0,21.8,00.0,31.8,24.9,10.3,0002.6,0018.31,0009.25,0008.47
2022-11-12 17:39:00,,0827.7,5.00,0.00,23.0,21.8,00.0,31.8,24.9,10.2,0002.1,0018.64,0009.28,0008.45
2022-11-12 17:40:00,,0827.7,4.99,0.00,23.0,21.8,00.0,31.8,25.0,10.3,0002.2,0018.23,0009.27,0008.43
2022-11-12 17:41:00,,0827.7,5.00,0.00,23.0,21.8,00.0,31.8,25.0,10.3,0001.5,0018.89,0009.25,0008.43
2022-11-12 17:42:00,,0827.7,5.01,0.00,23.0,21.8,00.0,31.8,25.0,10.4,0001.0,0018.57,0009.26,0008.45
2022-11-12 17:43:00,,0827.7,4.98,0.00,23.1,21.8,00.0,31.8,25.0,10.4,0000.6,0018.24,0009.31,0008.48
2022-11-12 17:44:00,,0827.6,5.01,0.00,23.1,21.8,00.0,31.8,25.0,10.3,-000.0,0018.17,0009.34,0008.50
2022-11-12 17:45:00,,0827.6,5.01,0.00,23.1,21.8,00.0,31.8,24.9,10.4,-000.9,0018.16,0009.36,0008.52
2022-11-12 17:46:00,,0827.7,5.01,0.00,23.1,21.8,00.0,31.8,24.9,10.4,-001.0,0018.53,0009.36,0008.54
2022-11-12 17:47:00,,0827.7,4.98,0.00,23.1,21.9,00.0,31.8,25.0,10.3,-001.4,0019.33,0009.39,0008.55
2022-11-12 17:48:00,,0827.6,5.00,0.00,23.1,21.8,00.0,31.9,25.0,10.3,-001.1,0019.40,0009.40,0008.57
2022-11-12 17:49:00,,0827.6,5.01,0.00,23.1,21.8,00.0,31.9,25.0,10.3,-001.4,0018.35,0009.42,0008.60
2022-11-12 17:50:00,,0827.6,5.01,0.00,23.1,21.8,00.0,31.9,25.0,10.3,-001.1,0017.97,0009.44,0008.63
2022-11-12 17:51:00,,0827.5,5.00,0.00,23.1,21.9,00.0,31.9,25.0,10.2,-000.8,0017.82,0009.39,0008.65
2022-11-12 17:52:00,,0827.5,4.99,0.00,23.1,21.9,00.0,31.9,25.0,10.2,-000.8,0017.60,0009.39,0008.67
2022-11-12 17:53:00,,0827.5,5.00,0.00,23.1,21.9,00.0,31.9,25.0,10.3,-000.3,0017.75,0009.40,0008.67
2022-11-12 17:54:00,,0827.5,5.01,0.00,23.1,21.9,00.0,31.9,25.0,10.3,0000.4,0017.81,0009.40,0008.67
2022-11-12 17:55:00,,0827.5,4.99,0.00,23.1,21.9,00.0,31.9,25.0,10.2,0000.4,0017.69,0009.37,0008.66
2022-11-12 17:56:00,,0827.5,4.99,0.00,23.1,21.9,00.0,31.9,25.0,10.2,0001.1,0017.70,0009.39,0008.67
2022-11-12 17:57:00,,0827.6,4.99,0.00,23.1,21.9,00.0,31.9,25.0,10.2,0001.4,0017.71,0009.43,0008.67
2022-11-12 17:58:00,,0827.6,5.00,0.00,23.1,21.9,00.0,31.9,25.0,10.2,0001.7,0017.33,0009.40,0008.64
2022-11-12 17:59:00,,0827.5,5.00,0.00,23.1,21.9,00.0,31.9,25.0,10.3,0001.4,0016.74,0009.35,0008.62
